| time (UTC) | temp C | wind direction | speed KPH | gust KPH | rain 1hr cm | rain 24hr cm | rain mn cm | humidity % | barometer mb |
| 20260905222502 | 21 | 113 | 0.0 | 0.0 | 0.00 | 0.00 | 0.00 | 77 | 1013.3 |
| 20260905221957 | 21 | 113 | 0.0 | 0.0 | 0.00 | 0.00 | 0.00 | 78 | 1013.0 |
| 20260905221454 | 21 | 113 | 0.0 | 0.0 | 0.00 | 0.00 | 0.00 | 77 | 1013.0 |
| 20260905220949 | 21 | 113 | 0.0 | 0.0 | 0.00 | 0.00 | 0.00 | 76 | 1013.1 |
| 20260905220445 | 21 | 113 | 0.0 | 0.0 | 0.00 | 0.00 | 0.00 | 78 | 1013.1 |
| 20260905215944 | 21 | 112 | 0.0 | 1.6 | 0.00 | 0.00 | 0.00 | 75 | 1013.0 |
| 20260905215440 | 21 | 113 | 0.0 | 0.0 | 0.00 | 0.00 | 0.00 | 78 | 1013.1 |
| 20260905214936 | 21 | 113 | 0.0 | 0.0 | 0.00 | 0.00 | 0.00 | 77 | 1012.9 |
| 20260905214432 | 22 | 113 | 0.0 | 0.0 | 0.00 | 0.00 | 0.00 | 77 | 1013.0 |
| 20260905213932 | 22 | 112 | 1.6 | 1.6 | 0.00 | 0.00 | 0.00 | 75 | 1012.8 |
| 20260905213428 | 22 | 112 | 0.0 | 1.6 | 0.00 | 0.00 | 0.00 | 77 | 1012.8 |
| 20260905212923 | 22 | 112 | 1.6 | 1.6 | 0.00 | 0.00 | 0.00 | 74 | 1012.8 |
| 20260905212418 | 22 | 129 | 0.0 | 1.6 | 0.00 | 0.00 | 0.00 | 77 | 1012.8 |
| 20260905211917 | 22 | 112 | 0.0 | 0.0 | 0.00 | 0.00 | 0.00 | 76 | 1013.0 |
| 20260905211413 | 22 | 112 | 0.0 | 1.6 | 0.00 | 0.00 | 0.00 | 74 | 1012.8 |
| 20260905210909 | 22 | 112 | 0.0 | 1.6 | 0.00 | 0.00 | 0.00 | 75 | 1012.4 |
| 20260905210409 | 22 | 112 | 1.6 | 1.6 | 0.00 | 0.00 | 0.00 | 75 | 1012.4 |
| 20260905205908 | 22 | 98 | 0.0 | 1.6 | 0.00 | 0.00 | 0.00 | 74 | 1012.3 |
| 20260905205403 | 22 | 124 | 0.0 | 0.0 | 0.00 | 0.00 | 0.00 | 74 | 1012.5 |
| 20260905204902 | 22 | 314 | 0.0 | 1.6 | 0.00 | 0.00 | 0.00 | 73 | 1012.5 |
| 20260905204358 | 22 | 315 | 0.0 | 0.0 | 0.00 | 0.00 | 0.00 | 72 | 1012.3 |
| 20260905203857 | 22 | 224 | 3.2 | 4.8 | 0.00 | 0.00 | 0.00 | 72 | 1012.4 |
| 20260905203353 | 22 | 160 | 1.6 | 1.6 | 0.00 | 0.00 | 0.00 | 74 | 1012.3 |
| 20260905202848 | 22 | 160 | 0.0 | 1.6 | 0.00 | 0.00 | 0.00 | 73 | 1012.3 |
| 20260905202343 | 22 | 169 | 1.6 | 3.2 | 0.00 | 0.00 | 0.00 | 72 | 1012.4 |
| 20260905201839 | 22 | 82 | 0.0 | 3.2 | 0.00 | 0.00 | 0.00 | 72 | 1012.5 |
| 20260905201334 | 22 | 81 | 0.0 | 1.6 | 0.00 | 0.00 | 0.00 | 72 | 1012.4 |
| 20260905200828 | 22 | 81 | 0.0 | 1.6 | 0.00 | 0.00 | 0.00 | 72 | 1012.2 |
| 20260905200326 | 22 | 81 | 0.0 | 1.6 | 0.00 | 0.00 | 0.00 | 72 | 1012.4 |
| 20260905195822 | 23 | 81 | 0.0 | 3.2 | 0.00 | 0.00 | 0.00 | 73 | 1012.3 |
| 20260905195317 | 23 | 81 | 1.6 | 1.6 | 0.00 | 0.00 | 0.00 | 70 | 1012.5 |
| 20260905194813 | 22 | 81 | 0.0 | 0.0 | 0.00 | 0.00 | 0.00 | 72 | 1012.0 |
| 20260905194313 | 22 | 80 | 0.0 | 0.0 | 0.00 | 0.00 | 0.00 | 74 | 1012.3 |
| 20260905193812 | 22 | 80 | 0.0 | 0.0 | 0.00 | 0.00 | 0.00 | 73 | 1012.3 |
| 20260905193307 | 22 | 80 | 0.0 | 1.6 | 0.00 | 0.00 | 0.00 | 75 | 1012.4 |
| 20260905192802 | 22 | 80 | 0.0 | 0.0 | 0.00 | 0.00 | 0.00 | 72 | 1012.2 |
| 20260905192258 | 23 | 80 | 1.6 | 1.6 | 0.00 | 0.00 | 0.00 | 73 | 1012.4 |
| 20260905191757 | 23 | 80 | 0.0 | 0.0 | 0.00 | 0.00 | 0.00 | 72 | 1012.2 |
| 20260905191256 | 23 | 80 | 0.0 | 1.6 | 0.00 | 0.00 | 0.00 | 69 | 1012.1 |
| 20260905190755 | 23 | 80 | 0.0 | 0.0 | 0.00 | 0.00 | 0.00 | 73 | 1012.3 |
| 20260905190254 | 22 | 80 | 0.0 | 0.0 | 0.00 | 0.00 | 0.00 | 74 | 1012.5 |
| 20260905185754 | 22 | 80 | 0.0 | 1.6 | 0.00 | 0.00 | 0.00 | 74 | 1012.4 |
| 20260905185249 | 22 | 80 | 0.0 | 0.0 | 0.00 | 0.00 | 0.00 | 75 | 1012.3 |
| 20260905184748 | 23 | 80 | 0.0 | 0.0 | 0.00 | 0.00 | 0.00 | 73 | 1012.2 |
| 20260905184242 | 23 | 80 | 0.0 | 0.0 | 0.00 | 0.00 | 0.00 | 70 | 1012.2 |
| 20260905183741 | 23 | 80 | 0.0 | 0.0 | 0.00 | 0.00 | 0.00 | 72 | 1012.2 |
| 20260905183237 | 23 | 80 | 0.0 | 0.0 | 0.00 | 0.00 | 0.00 | 74 | 1012.0 |
| 20260905182731 | 23 | 80 | 0.0 | 0.0 | 0.00 | 0.00 | 0.00 | 76 | 1012.5 |
| 20260905182230 | 23 | 80 | 0.0 | 0.0 | 0.00 | 0.00 | 0.00 | 71 | 1012.2 |
| 20260905181726 | 22 | 80 | 0.0 | 0.0 | 0.00 | 0.00 | 0.00 | 72 | 1012.4 |
| 20260905181224 | 22 | 80 | 0.0 | 0.0 | 0.00 | 0.00 | 0.00 | 72 | 1012.6 |
| 20260905180719 | 22 | 80 | 0.0 | 0.0 | 0.00 | 0.00 | 0.00 | 76 | 1012.7 |
| 20260905180215 | 22 | 80 | 0.0 | 0.0 | 0.00 | 0.00 | 0.00 | 78 | 1012.4 |
| 20260905175715 | 22 | 80 | 0.0 | 0.0 | 0.00 | 0.00 | 0.00 | 79 | 1012.5 |
| 20260905175209 | 21 | 79 | 0.0 | 0.0 | 0.00 | 0.00 | 0.00 | 77 | 1012.7 |
| 20260905174705 | 22 | 79 | 0.0 | 1.6 | 0.00 | 0.00 | 0.00 | 76 | 1012.7 |
| 20260905174200 | 22 | 129 | 0.0 | 0.0 | 0.00 | 0.00 | 0.00 | 72 | 1012.7 |
| 20260905173656 | 22 | 129 | 0.0 | 1.6 | 0.00 | 0.00 | 0.00 | 71 | 1012.5 |
| 20260905173152 | 23 | 129 | 1.6 | 3.2 | 0.00 | 0.00 | 0.00 | 68 | 1012.6 |
| 20260905172651 | 23 | 53 | 0.0 | 8.0 | 0.00 | 0.00 | 0.00 | 66 | 1012.4 |
| 20260905172145 | 24 | 173 | 0.0 | 1.6 | 0.00 | 0.00 | 0.00 | 67 | 1012.6 |
| 20260905171641 | 24 | 124 | 1.6 | 1.6 | 0.00 | 0.00 | 0.00 | 65 | 1012.6 |
| 20260905171137 | 23 | 45 | 1.6 | 4.8 | 0.00 | 0.00 | 0.00 | 65 | 1012.7 |
| 20260905170634 | 23 | 115 | 0.0 | 0.0 | 0.00 | 0.00 | 0.00 | 70 | 1012.7 |
| 20260905170129 | 22 | 114 | 1.6 | 1.6 | 0.00 | 0.00 | 0.00 | 69 | 1012.5 |
| 20260905165623 | 22 | 14 | 3.2 | 4.8 | 0.00 | 0.00 | 0.00 | 69 | 1012.5 |
| 20260905165119 | 22 | 95 | 0.0 | 4.8 | 0.00 | 0.00 | 0.00 | 71 | 1012.5 |
| 20260905164614 | 23 | 89 | 0.0 | 1.6 | 0.00 | 0.00 | 0.00 | 69 | 1012.5 |
| 20260905164113 | 23 | 86 | 4.8 | 4.8 | 0.00 | 0.00 | 0.00 | 67 | 1012.4 |
| 20260905163609 | 23 | 133 | 1.6 | 8.0 | 0.00 | 0.00 | 0.00 | 68 | 1012.5 |
| 20260905163105 | 22 | 1 | 0.0 | 4.8 | 0.00 | 0.00 | 0.00 | 68 | 1012.7 |
| 20260905162601 | 22 | 105 | 0.0 | 1.6 | 0.00 | 0.00 | 0.00 | 70 | 1012.4 |
| 20260905162055 | 22 | 106 | 0.0 | 0.0 | 0.00 | 0.00 | 0.00 | 70 | 1012.8 |
| 20260905161555 | 22 | 20 | 1.6 | 3.2 | 0.00 | 0.00 | 0.00 | 67 | 1012.5 |
| 20260905161053 | 23 | 86 | 1.6 | 1.6 | 0.00 | 0.00 | 0.00 | 68 | 1012.4 |
| 20260905160552 | 23 | 73 | 4.8 | 8.0 | 0.00 | 0.00 | 0.00 | 66 | 1012.5 |
| 20260905160052 | 22 | 93 | 1.6 | 3.2 | 0.00 | 0.00 | 0.00 | 69 | 1012.3 |
| 20260905155551 | 22 | 56 | 1.6 | 3.2 | 0.00 | 0.00 | 0.00 | 69 | 1012.3 |
| 20260905155050 | 22 | 281 | 0.0 | 3.2 | 0.00 | 0.00 | 0.00 | 70 | 1012.4 |
| 20260905154545 | 22 | 330 | 1.6 | 3.2 | 0.00 | 0.00 | 0.00 | 69 | 1012.3 |
| 20260905154041 | 23 | 171 | 0.0 | 8.0 | 0.00 | 0.00 | 0.00 | 68 | 1012.3 |
| 20260905153537 | 23 | 58 | 6.4 | 9.7 | 0.00 | 0.00 | 0.00 | 66 | 1012.3 |
| 20260905153036 | 23 | 78 | 3.2 | 9.7 | 0.00 | 0.00 | 0.00 | 65 | 1012.5 |
| 20260905152531 | 23 | 103 | 1.6 | 9.7 | 0.00 | 0.00 | 0.00 | 65 | 1012.5 |
| 20260905152026 | 23 | 18 | 1.6 | 8.0 | 0.00 | 0.00 | 0.00 | 67 | 1012.8 |
| 20260905151521 | 23 | 72 | 3.2 | 4.8 | 0.00 | 0.00 | 0.00 | 64 | 1012.5 |
| 20260905151017 | 22 | 340 | 1.6 | 4.8 | 0.00 | 0.00 | 0.00 | 68 | 1012.7 |
| 20260905150512 | 23 | 134 | 0.0 | 8.0 | 0.00 | 0.00 | 0.00 | 67 | 1012.4 |
| 20260905150010 | 23 | 131 | 1.6 | 4.8 | 0.00 | 0.00 | 0.00 | 66 | 1012.6 |
| 20260905145503 | 23 | 96 | 1.6 | 1.6 | 0.00 | 0.00 | 0.00 | 68 | 1012.6 |
| 20260905145003 | 23 | 245 | 1.6 | 3.2 | 0.00 | 0.00 | 0.00 | 68 | 1012.5 |
| 20260905144458 | 23 | 45 | 0.0 | 3.2 | 0.00 | 0.00 | 0.00 | 66 | 1012.7 |
| 20260905143957 | 23 | 134 | 1.6 | 9.7 | 0.00 | 0.00 | 0.00 | 67 | 1012.6 |
| 20260905143455 | 22 | 130 | 0.0 | 8.0 | 0.00 | 0.00 | 0.00 | 69 | 1012.4 |
| 20260905142951 | 22 | 167 | 1.6 | 9.7 | 0.00 | 0.00 | 0.00 | 70 | 1012.5 |
| 20260905142449 | 22 | 122 | 0.0 | 4.8 | 0.00 | 0.00 | 0.00 | 72 | 1012.3 |
| 20260905141945 | 22 | 113 | 0.0 | 3.2 | 0.00 | 0.00 | 0.00 | 69 | 1012.7 |
| 20260905141440 | 22 | 173 | 1.6 | 3.2 | 0.00 | 0.00 | 0.00 | 69 | 1012.5 |
| 20260905140936 | 22 | 100 | 3.2 | 8.0 | 0.00 | 0.00 | 0.00 | 70 | 1012.5 |
| 20260905140431 | 22 | 13 | 1.6 | 3.2 | 0.00 | 0.00 | 0.00 | 71 | 1012.6 |
| 20260905135930 | 22 | 13 | 1.6 | 3.2 | 0.00 | 0.00 | 0.00 | 71 | 1012.5 |
| 20260905135426 | 22 | 179 | 4.8 | 8.0 | 0.00 | 0.00 | 0.00 | 70 | 1012.7 |
| 20260905134921 | 21 | 331 | 1.6 | 9.7 | 0.00 | 0.00 | 0.00 | 74 | 1012.9 |
| 20260905134420 | 21 | 50 | 6.4 | 9.7 | 0.00 | 0.00 | 0.00 | 75 | 1012.7 |
| 20260905133914 | 21 | 170 | 1.6 | 3.2 | 0.00 | 0.00 | 0.00 | 77 | 1012.9 |
| 20260905133409 | 21 | 144 | 0.0 | 0.0 | 0.00 | 0.00 | 0.00 | 77 | 1012.6 |
| 20260905132909 | 20 | 145 | 0.0 | 0.0 | 0.00 | 0.00 | 0.00 | 79 | 1012.8 |
| 20260905132404 | 18 | 139 | 0.0 | 0.0 | 0.00 | 0.00 | 0.00 | 83 | 1012.9 |
| 20260905131859 | 18 | 151 | 1.6 | 1.6 | 0.00 | 0.00 | 0.00 | 84 | 1012.8 |
| 20260905131354 | 18 | 113 | 0.0 | 0.0 | 0.00 | 0.00 | 0.00 | 85 | 1013.0 |
| 20260905130849 | 18 | 114 | 0.0 | 0.0 | 0.00 | 0.00 | 0.00 | 86 | 1012.9 |
| 20260905130348 | 17 | 105 | 0.0 | 0.0 | 0.00 | 0.00 | 0.00 | 88 | 1012.9 |
| 20260905125843 | 16 | 138 | 0.0 | 0.0 | 0.00 | 0.00 | 0.00 | 91 | 1013.1 |
| 20260905125338 | 16 | 138 | 0.0 | 0.0 | 0.00 | 0.00 | 0.00 | 92 | 1013.1 |
| 20260905124834 | 16 | 138 | 0.0 | 0.0 | 0.00 | 0.00 | 0.00 | 93 | 1013.0 |
| 20260905124330 | 16 | 138 | 0.0 | 0.0 | 0.00 | 0.00 | 0.00 | 94 | 1013.2 |
| 20260905123824 | 16 | 138 | 0.0 | 0.0 | 0.00 | 0.00 | 0.00 | 95 | 1013.3 |
| 20260905123322 | 16 | 139 | 0.0 | 0.0 | 0.00 | 0.00 | 0.00 | 96 | 1013.0 |
| 20260905122821 | 16 | 139 | 0.0 | 0.0 | 0.00 | 0.00 | 0.00 | 96 | 1013.2 |
| 20260905122320 | 16 | 139 | 0.0 | 0.0 | 0.00 | 0.00 | 0.00 | 96 | 1013.2 |
| 20260905121816 | 16 | 139 | 0.0 | 0.0 | 0.00 | 0.00 | 0.00 | 96 | 1013.1 |
| 20260905121313 | 16 | 139 | 0.0 | 0.0 | 0.00 | 0.00 | 0.00 | 97 | 1013.2 |
| 20260905120811 | 15 | 139 | 0.0 | 0.0 | 0.00 | 0.00 | 0.00 | 97 | 1013.0 |
| 20260905120306 | 15 | 138 | 0.0 | 0.0 | 0.00 | 0.00 | 0.00 | 97 | 1013.1 |
| 20260905115801 | 15 | 139 | 0.0 | 0.0 | 0.00 | 0.00 | 0.00 | 97 | 1013.1 |
| 20260905115300 | 15 | 139 | 0.0 | 1.6 | 0.00 | 0.00 | 0.00 | 97 | 1013.1 |
| 20260905114759 | 15 | 139 | 0.0 | 0.0 | 0.00 | 0.00 | 0.00 | 97 | 1013.1 |
| 20260905114259 | 14 | 138 | 0.0 | 0.0 | 0.00 | 0.00 | 0.00 | 97 | 1012.9 |
| 20260905113753 | 14 | 140 | 0.0 | 0.0 | 0.00 | 0.00 | 0.00 | 97 | 1012.9 |
| 20260905113248 | 14 | 138 | 0.0 | 0.0 | 0.00 | 0.00 | 0.00 | 97 | 1012.8 |
| 20260905112743 | 14 | 139 | 0.0 | 0.0 | 0.00 | 0.00 | 0.00 | 97 | 1012.6 |
| 20260905112244 | 13 | 138 | 0.0 | 0.0 | 0.00 | 0.00 | 0.00 | 97 | 1012.6 |
| 20260905111739 | 13 | 139 | 0.0 | 0.0 | 0.00 | 0.00 | 0.00 | 97 | 1012.6 |
| 20260905111233 | 13 | 139 | 0.0 | 0.0 | 0.00 | 0.00 | 0.00 | 97 | 1012.7 |
| 20260905110732 | 13 | 138 | 0.0 | 0.0 | 0.00 | 0.00 | 0.00 | 97 | 1012.5 |
| 20260905110227 | 13 | 139 | 0.0 | 0.0 | 0.00 | 0.00 | 0.00 | 97 | 1012.5 |
| 20260905105722 | 13 | 138 | 0.0 | 0.0 | 0.00 | 0.00 | 0.00 | 97 | 1012.6 |
| 20260905105221 | 13 | 138 | 0.0 | 0.0 | 0.00 | 0.00 | 0.00 | 97 | 1012.2 |
| 20260905104716 | 13 | 138 | 0.0 | 0.0 | 0.00 | 0.00 | 0.00 | 97 | 1012.4 |
| 20260905104212 | 13 | 139 | 0.0 | 0.0 | 0.00 | 0.00 | 0.00 | 97 | 1012.0 |
| 20260905103707 | 13 | 145 | 0.0 | 0.0 | 0.00 | 0.00 | 0.00 | 97 | 1012.1 |
| 20260905103203 | 13 | 145 | 0.0 | 0.0 | 0.00 | 0.00 | 0.00 | 97 | 1012.2 |
| 20260905102658 | 13 | 146 | 0.0 | 0.0 | 0.00 | 0.00 | 0.00 | 97 | 1011.9 |
| 20260905102155 | 13 | 140 | 0.0 | 0.0 | 0.00 | 0.00 | 0.00 | 97 | 1011.8 |
| 20260905101653 | 13 | 139 | 0.0 | 0.0 | 0.00 | 0.00 | 0.00 | 97 | 1012.0 |
| 20260905101152 | 13 | 139 | 0.0 | 0.0 | 0.00 | 0.00 | 0.00 | 97 | 1011.9 |
| 20260905100648 | 13 | 139 | 0.0 | 0.0 | 0.00 | 0.00 | 0.00 | 97 | 1012.1 |
| 20260905100143 | 13 | 139 | 0.0 | 0.0 | 0.00 | 0.00 | 0.00 | 97 | 1011.8 |
| 20260905095642 | 13 | 140 | 0.0 | 0.0 | 0.00 | 0.00 | 0.00 | 97 | 1011.9 |
| 20260905095137 | 13 | 139 | 0.0 | 0.0 | 0.00 | 0.00 | 0.00 | 97 | 1011.9 |
| 20260905094632 | 13 | 139 | 0.0 | 0.0 | 0.00 | 0.00 | 0.00 | 97 | 1012.0 |
| 20260905094131 | 13 | 139 | 0.0 | 0.0 | 0.00 | 0.00 | 0.00 | 97 | 1011.9 |
| 20260905093626 | 13 | 142 | 0.0 | 0.0 | 0.00 | 0.00 | 0.00 | 97 | 1012.1 |
| 20260905093123 | 13 | 142 | 0.0 | 0.0 | 0.00 | 0.00 | 0.00 | 97 | 1011.8 |
| 20260905092622 | 13 | 142 | 0.0 | 0.0 | 0.00 | 0.00 | 0.00 | 97 | 1011.9 |
| 20260905092119 | 13 | 140 | 0.0 | 0.0 | 0.00 | 0.00 | 0.00 | 97 | 1011.7 |
| 20260905091618 | 13 | 139 | 0.0 | 0.0 | 0.00 | 0.00 | 0.00 | 97 | 1011.8 |
| 20260905091112 | 13 | 139 | 0.0 | 0.0 | 0.00 | 0.00 | 0.00 | 97 | 1011.9 |
| 20260905090612 | 13 | 139 | 0.0 | 0.0 | 0.00 | 0.00 | 0.00 | 97 | 1012.1 |
| 20260905090108 | 13 | 139 | 0.0 | 0.0 | 0.00 | 0.00 | 0.00 | 97 | 1011.8 |
| 20260905085606 | 13 | 139 | 0.0 | 0.0 | 0.00 | 0.00 | 0.00 | 96 | 1012.0 |
| 20260905085103 | 13 | 139 | 0.0 | 0.0 | 0.00 | 0.00 | 0.00 | 96 | 1012.0 |
| 20260905084601 | 13 | 139 | 0.0 | 0.0 | 0.00 | 0.00 | 0.00 | 96 | 1011.9 |
| 20260905084057 | 13 | 140 | 0.0 | 0.0 | 0.00 | 0.00 | 0.00 | 96 | 1012.1 |
| 20260905083551 | 13 | 140 | 0.0 | 0.0 | 0.00 | 0.00 | 0.00 | 96 | 1012.1 |
| 20260905083048 | 13 | 140 | 0.0 | 0.0 | 0.00 | 0.00 | 0.00 | 96 | 1011.9 |
| 20260905082543 | 13 | 140 | 0.0 | 0.0 | 0.00 | 0.00 | 0.00 | 96 | 1012.0 |
| 20260905082039 | 13 | 140 | 0.0 | 0.0 | 0.00 | 0.00 | 0.00 | 96 | 1012.0 |
| 20260905081538 | 13 | 139 | 0.0 | 0.0 | 0.00 | 0.00 | 0.00 | 96 | 1011.9 |
| 20260905081033 | 14 | 139 | 0.0 | 0.0 | 0.00 | 0.00 | 0.00 | 96 | 1012.1 |
| 20260905080532 | 14 | 139 | 0.0 | 0.0 | 0.00 | 0.00 | 0.00 | 96 | 1012.0 |
| 20260905080028 | 14 | 139 | 0.0 | 0.0 | 0.00 | 0.00 | 0.00 | 96 | 1012.1 |
| 20260905075521 | 14 | 138 | 0.0 | 0.0 | 0.00 | 0.00 | 0.00 | 96 | 1012.2 |
| 20260905075021 | 14 | 138 | 0.0 | 0.0 | 0.00 | 0.00 | 0.00 | 96 | 1012.3 |
| 20260905074515 | 14 | 139 | 0.0 | 0.0 | 0.00 | 0.00 | 0.00 | 96 | 1011.9 |
| 20260905074011 | 14 | 139 | 0.0 | 0.0 | 0.00 | 0.00 | 0.00 | 95 | 1012.2 |
| 20260905073500 | 14 | 140 | 0.0 | 0.0 | 0.00 | 0.00 | 0.00 | 95 | 1012.0 |
| 20260905072955 | 14 | 142 | 0.0 | 0.0 | 0.00 | 0.00 | 0.00 | 95 | 1012.1 |
| 20260905072455 | 15 | 144 | 0.0 | 0.0 | 0.00 | 0.00 | 0.00 | 95 | 1012.1 |
| 20260905071952 | 15 | 145 | 0.0 | 0.0 | 0.00 | 0.00 | 0.00 | 95 | 1012.1 |
| 20260905071449 | 15 | 146 | 0.0 | 0.0 | 0.00 | 0.00 | 0.00 | 95 | 1012.0 |
| 20260905070948 | 15 | 147 | 0.0 | 0.0 | 0.00 | 0.00 | 0.00 | 95 | 1012.0 |
| 20260905070444 | 15 | 146 | 0.0 | 0.0 | 0.00 | 0.00 | 0.00 | 95 | 1012.1 |
| 20260905065944 | 15 | 146 | 0.0 | 0.0 | 0.00 | 0.00 | 0.00 | 95 | 1012.2 |
| 20260905065441 | 15 | 146 | 0.0 | 0.0 | 0.00 | 0.00 | 0.00 | 95 | 1012.2 |
| 20260905064937 | 15 | 146 | 0.0 | 0.0 | 0.00 | 0.00 | 0.00 | 95 | 1012.4 |
| 20260905064432 | 15 | 146 | 0.0 | 0.0 | 0.00 | 0.00 | 0.00 | 95 | 1012.1 |
| 20260905063927 | 15 | 146 | 0.0 | 0.0 | 0.00 | 0.00 | 0.00 | 95 | 1012.2 |
| 20260905063422 | 15 | 146 | 0.0 | 0.0 | 0.00 | 0.00 | 0.00 | 95 | 1012.1 |
| 20260905062918 | 15 | 146 | 0.0 | 0.0 | 0.00 | 0.00 | 0.00 | 95 | 1012.3 |
| 20260905062412 | 15 | 146 | 0.0 | 0.0 | 0.00 | 0.00 | 0.00 | 95 | 1012.4 |
| 20260905061907 | 15 | 146 | 0.0 | 0.0 | 0.00 | 0.00 | 0.00 | 95 | 1012.3 |
| 20260905061406 | 15 | 146 | 0.0 | 0.0 | 0.00 | 0.00 | 0.00 | 95 | 1012.4 |
| 20260905060901 | 15 | 146 | 0.0 | 0.0 | 0.00 | 0.00 | 0.00 | 95 | 1012.4 |
| 20260905060358 | 15 | 146 | 0.0 | 0.0 | 0.00 | 0.00 | 0.00 | 95 | 1012.6 |
| 20260905055856 | 15 | 147 | 0.0 | 0.0 | 0.00 | 0.00 | 0.00 | 95 | 1012.7 |
| 20260905055352 | 15 | 149 | 0.0 | 0.0 | 0.00 | 0.00 | 0.00 | 94 | 1012.7 |
| 20260905054851 | 15 | 147 | 0.0 | 0.0 | 0.00 | 0.00 | 0.00 | 94 | 1012.9 |
| 20260905054347 | 15 | 147 | 0.0 | 0.0 | 0.00 | 0.00 | 0.00 | 94 | 1012.8 |
| 20260905053847 | 15 | 147 | 0.0 | 0.0 | 0.00 | 0.00 | 0.00 | 94 | 1012.8 |
| 20260905053342 | 15 | 151 | 0.0 | 0.0 | 0.00 | 0.00 | 0.00 | 94 | 1012.9 |
| 20260905052837 | 15 | 147 | 0.0 | 0.0 | 0.00 | 0.00 | 0.00 | 94 | 1012.7 |
| 20260905052337 | 15 | 147 | 0.0 | 0.0 | 0.00 | 0.00 | 0.00 | 93 | 1012.9 |
| 20260905051836 | 15 | 148 | 0.0 | 0.0 | 0.00 | 0.00 | 0.00 | 93 | 1013.0 |
| 20260905051332 | 16 | 147 | 0.0 | 0.0 | 0.00 | 0.00 | 0.00 | 93 | 1013.1 |
| 20260905050829 | 16 | 147 | 0.0 | 0.0 | 0.00 | 0.00 | 0.00 | 93 | 1012.9 |
| 20260905050325 | 16 | 148 | 0.0 | 0.0 | 0.00 | 0.00 | 0.00 | 92 | 1013.0 |
| 20260905045820 | 16 | 147 | 0.0 | 0.0 | 0.00 | 0.00 | 0.00 | 92 | 1013.0 |
| 20260905045315 | 16 | 148 | 0.0 | 0.0 | 0.00 | 0.00 | 0.00 | 92 | 1012.9 |
| 20260905044810 | 16 | 148 | 0.0 | 0.0 | 0.00 | 0.00 | 0.00 | 92 | 1013.1 |
| 20260905044306 | 16 | 147 | 0.0 | 0.0 | 0.00 | 0.00 | 0.00 | 91 | 1013.1 |
| 20260905043804 | 16 | 147 | 0.0 | 0.0 | 0.00 | 0.00 | 0.00 | 91 | 1013.2 |
| 20260905043259 | 16 | 147 | 0.0 | 0.0 | 0.00 | 0.00 | 0.00 | 91 | 1013.3 |
| 20260905042759 | 16 | 147 | 0.0 | 0.0 | 0.00 | 0.00 | 0.00 | 91 | 1012.9 |
| 20260905042259 | 16 | 148 | 0.0 | 0.0 | 0.00 | 0.00 | 0.00 | 90 | 1013.1 |
| 20260905041754 | 16 | 148 | 0.0 | 0.0 | 0.00 | 0.00 | 0.00 | 90 | 1013.1 |
| 20260905041249 | 16 | 149 | 0.0 | 1.6 | 0.00 | 0.00 | 0.00 | 90 | 1013.0 |
| 20260905040744 | 17 | 149 | 0.0 | 0.0 | 0.00 | 0.00 | 0.00 | 89 | 1013.1 |
| 20260905040243 | 17 | 150 | 0.0 | 0.0 | 0.00 | 0.00 | 0.00 | 88 | 1013.0 |
| 20260905035738 | 17 | 150 | 0.0 | 0.0 | 0.00 | 0.25 | 0.25 | 89 | 1013.0 |
| 20260905035234 | 16 | 149 | 0.0 | 0.0 | 0.00 | 0.25 | 0.25 | 90 | 1012.9 |
| 20260905034731 | 17 | 150 | 0.0 | 0.0 | 0.00 | 0.25 | 0.25 | 89 | 1012.7 |
| 20260905034230 | 17 | 163 | 1.6 | 3.2 | 0.00 | 0.25 | 0.25 | 88 | 1012.9 |
| 20260905033730 | 17 | 165 | 1.6 | 3.2 | 0.00 | 0.25 | 0.25 | 87 | 1013.0 |
| 20260905033225 | 17 | 160 | 3.2 | 3.2 | 0.00 | 0.25 | 0.25 | 86 | 1012.7 |
| 20260905032724 | 17 | 156 | 1.6 | 3.2 | 0.00 | 0.25 | 0.25 | 85 | 1012.9 |
| 20260905032220 | 17 | 152 | 3.2 | 3.2 | 0.00 | 0.25 | 0.25 | 85 | 1012.8 |
| 20260905031715 | 18 | 154 | 1.6 | 3.2 | 0.00 | 0.25 | 0.25 | 85 | 1012.7 |
| 20260905031210 | 18 | 151 | 1.6 | 3.2 | 0.00 | 0.25 | 0.25 | 85 | 1012.9 |
| 20260905030705 | 17 | 155 | 0.0 | 0.0 | 0.00 | 0.25 | 0.25 | 86 | 1012.8 |
| 20260905030201 | 18 | 157 | 0.0 | 0.0 | 0.00 | 0.25 | 0.25 | 86 | 1013.1 |
| 20260905025655 | 18 | 155 | 0.0 | 0.0 | 0.00 | 0.25 | 0.25 | 86 | 1012.7 |
| 20260905025151 | 17 | 151 | 0.0 | 0.0 | 0.00 | 0.25 | 0.25 | 88 | 1012.8 |
| 20260905024647 | 17 | 153 | 0.0 | 0.0 | 0.00 | 0.25 | 0.25 | 92 | 1012.9 |
| 20260905024142 | 17 | 155 | 0.0 | 0.0 | 0.00 | 0.25 | 0.25 | 92 | 1012.9 |
| 20260905023637 | 17 | 150 | 0.0 | 0.0 | 0.00 | 0.25 | 0.25 | 92 | 1012.9 |
| 20260905023137 | 17 | 152 | 0.0 | 0.0 | 0.00 | 0.25 | 0.25 | 93 | 1012.8 |
| 20260905022636 | 17 | 150 | 0.0 | 0.0 | 0.00 | 0.25 | 0.25 | 93 | 1013.0 |
| 20260905022131 | 17 | 147 | 0.0 | 0.0 | 0.00 | 0.25 | 0.25 | 93 | 1013.1 |
| 20260905021626 | 17 | 151 | 0.0 | 0.0 | 0.00 | 0.25 | 0.25 | 92 | 1013.0 |
| 20260905021121 | 17 | 151 | 0.0 | 0.0 | 0.00 | 0.25 | 0.25 | 93 | 1012.8 |
| 20260905020621 | 17 | 155 | 0.0 | 0.0 | 0.00 | 0.25 | 0.25 | 92 | 1013.0 |
| 20260905020116 | 17 | 153 | 0.0 | 0.0 | 0.00 | 0.25 | 0.25 | 92 | 1012.9 |
| 20260905015615 | 17 | 156 | 0.0 | 0.0 | 0.00 | 0.25 | 0.25 | 93 | 1013.0 |
| 20260905015115 | 17 | 153 | 0.0 | 0.0 | 0.00 | 0.25 | 0.25 | 93 | 1012.9 |
| 20260905014609 | 17 | 152 | 0.0 | 0.0 | 0.00 | 0.25 | 0.25 | 93 | 1013.0 |
| 20260905014105 | 17 | 148 | 0.0 | 0.0 | 0.00 | 0.25 | 0.25 | 93 | 1013.0 |
| 20260905013601 | 17 | 147 | 0.0 | 0.0 | 0.00 | 0.25 | 0.25 | 93 | 1013.2 |
| 20260905013057 | 17 | 143 | 0.0 | 0.0 | 0.00 | 0.25 | 0.25 | 93 | 1013.2 |
| 20260905012556 | 17 | 144 | 0.0 | 0.0 | 0.00 | 0.25 | 0.25 | 93 | 1013.0 |
| 20260905012054 | 18 | 143 | 0.0 | 0.0 | 0.00 | 0.25 | 0.25 | 93 | 1013.1 |
| 20260905011549 | 18 | 144 | 0.0 | 0.0 | 0.00 | 0.25 | 0.25 | 92 | 1013.0 |
| 20260905011045 | 18 | 143 | 0.0 | 0.0 | 0.00 | 0.25 | 0.25 | 92 | 1012.9 |
| 20260905010544 | 18 | 143 | 0.0 | 0.0 | 0.00 | 0.25 | 0.25 | 91 | 1013.3 |
| 20260905010041 | 18 | 143 | 0.0 | 0.0 | 0.00 | 0.25 | 0.25 | 91 | 1013.3 |
| 20260905005536 | 18 | 143 | 0.0 | 0.0 | 0.00 | 0.25 | 0.25 | 90 | 1013.3 |
| 20260905005031 | 19 | 148 | 0.0 | 0.0 | 0.00 | 0.25 | 0.25 | 89 | 1013.4 |
| 20260905004526 | 19 | 144 | 0.0 | 0.0 | 0.00 | 0.25 | 0.25 | 88 | 1013.3 |
| 20260905004021 | 19 | 147 | 0.0 | 0.0 | 0.00 | 0.25 | 0.25 | 88 | 1013.2 |
| 20260905003517 | 19 | 144 | 0.0 | 0.0 | 0.00 | 0.25 | 0.25 | 88 | 1013.2 |
| 20260905003013 | 18 | 144 | 0.0 | 0.0 | 0.00 | 0.25 | 0.25 | 89 | 1013.1 |
| 20260905002507 | 18 | 144 | 0.0 | 0.0 | 0.00 | 0.25 | 0.25 | 89 | 1013.2 |
| 20260905002002 | 19 | 144 | 0.0 | 0.0 | 0.00 | 0.25 | 0.25 | 89 | 1013.1 |
| 20260905001456 | 19 | 141 | 0.0 | 0.0 | 0.00 | 0.25 | 0.25 | 89 | 1013.2 |
| 20260905000951 | 19 | 140 | 0.0 | 0.0 | 0.00 | 0.25 | 0.25 | 88 | 1013.1 |
| 20260905000447 | 19 | 142 | 0.0 | 0.0 | 0.00 | 0.25 | 0.25 | 88 | 1012.8 |
| 20260904235942 | 20 | 142 | 0.0 | 0.0 | 0.00 | 0.25 | 0.25 | 87 | 1012.6 |
| 20260904235438 | 20 | 157 | 0.0 | 0.0 | 0.00 | 0.25 | 0.25 | 87 | 1012.9 |
| 20260904234932 | 20 | 199 | 0.0 | 0.0 | 0.00 | 0.25 | 0.25 | 87 | 1012.7 |
| 20260904234431 | 20 | 199 | 0.0 | 0.0 | 0.00 | 0.25 | 0.25 | 86 | 1012.6 |
| 20260904233928 | 20 | 199 | 0.0 | 0.0 | 0.00 | 0.25 | 0.25 | 85 | 1012.7 |
| 20260904233423 | 20 | 200 | 0.0 | 0.0 | 0.00 | 0.25 | 0.25 | 83 | 1012.8 |
| 20260904232919 | 20 | 200 | 0.0 | 0.0 | 0.00 | 0.25 | 0.25 | 82 | 1012.7 |
| 20260904232415 | 21 | 200 | 0.0 | 0.0 | 0.00 | 0.25 | 0.25 | 82 | 1012.7 |
| 20260904231912 | 21 | 200 | 0.0 | 0.0 | 0.00 | 0.25 | 0.25 | 81 | 1012.7 |
| 20260904231407 | 21 | 200 | 0.0 | 0.0 | 0.00 | 0.25 | 0.25 | 81 | 1012.7 |
| 20260904230902 | 21 | 200 | 0.0 | 0.0 | 0.00 | 0.25 | 0.25 | 80 | 1012.4 |
| 20260904230400 | 22 | 200 | 0.0 | 0.0 | 0.00 | 0.25 | 0.25 | 78 | 1012.8 |
| 20260904225855 | 22 | 200 | 0.0 | 1.6 | 0.00 | 0.25 | 0.25 | 77 | 1012.7 |
| 20260904225353 | 22 | 200 | 1.6 | 1.6 | 0.00 | 0.25 | 0.25 | 75 | 1012.7 |
| 20260904224848 | 23 | 200 | 1.6 | 3.2 | 0.00 | 0.25 | 0.25 | 72 | 1012.8 |
| 20260904224343 | 24 | 201 | 0.0 | 0.0 | 0.00 | 0.25 | 0.25 | 72 | 1012.8 |
| 20260904223842 | 24 | 201 | 0.0 | 3.2 | 0.00 | 0.25 | 0.25 | 69 | 1012.8 |
| 20260904223337 | 25 | 201 | 1.6 | 3.2 | 0.00 | 0.25 | 0.25 | 67 | 1012.8 |